Location: Rounton
(54.4000°N, 1.3500°W)
Time: 04:17:44
(UTC+00:00)

S-56A Canister/Altair - Pass Details

Date: 09 December 2021
Orbit: 633 x 2499 km, 38.9° (Epoch: 17 January)

Event Time Altitude Azimuth Distance (km) Brightness Sun altitude
Rises 19:50:42 0° 185° (S) 5,987 12.0 -34.7°
Enters shadow 19:56:54 - 166° (SSE) 4,895 11.4 -35.6°
Reaches altitude 10° 19:58:56 10° 158° (SSE) 4,619 - -35.9°
Maximum altitude 20:02:10 11° 143° (SE) 4,316 - -36.4°
Drops below altitude 10° 20:05:12 10° 127° (SE) 4,228 - -36.8°
Sets 20:11:31 0° 97° (E) 4,734 - -37.7°
